Weather History for Boulder City, NV

Change the Weather History Date:

Sunday, January 20, 2013

  Actual Average (KLAS) Record (KLAS)
Temperature  
Mean Temperature 48 °F 49 °F  
Max Temperature 62 °F 58 °F 72 °F (1971)
Min Temperature 35 °F 40 °F 17 °F (1937)
Degree Days  
Heating Degree Days 16 16  
Month to date heating degree days 335  
Since 1 July heating degree days 1182  
Cooling Degree Days 0 0  
Month to date cooling degree days 0  
Year to date cooling degree days 0  
Moisture  
Dew Point 10 °F    
Average Humidity 22    
Maximum Humidity 36    
Minimum Humidity 10    
Precipitation  
Precipitation 0.00 in 0.01 in 0.49 in (1954)
Month to date precipitation 0.36  
Year to date precipitation 0.36  
Snow  
Snow 0.00 in 0.00 in 1.60 in (1949)
Month to date snowfall 0.0  
Since 1 July snowfall 0.2  
Snow Depth -    
Sea Level Pressure  
Sea Level Pressure 30.24 in    
Wind  
Wind Speed 3 mph (NNW)    
Max Wind Speed 10 mph    
Max Gust Speed -    
Visibility 10 miles    
Events      
T = Trace of Precipitation, MM = Missing Value Source: NWS Daily Summary

Daily Weather History Graph

Daily Weather History Graph

Search for Another Location

Airport:

Trip Planner

Search our weather history database for the weather conditions in past years. The results will help you decide how hot, cold, wet, or windy it might be!

Date:

Astronomy

Jan. 20, 2013 Rise Set
Actual Time 6:47 AM PST 4:54 PM PST
Civil Twilight 6:19 AM PST 5:21 PM PST
Nautical Twilight 5:48 AM PST 5:53 PM PST
Astronomical Twilight 5:17 AM PST 6:23 PM PST
Moon 11:57 AM PST 1:24 AM PST
Length of Visible Light 11h 02m
Length of Day
10h 07m
Waxing Gibbous, 67% of the Moon is Illuminated
Jan 20
Waxing Gibbous
Jan 26
Full
Feb 3
Last Quarter
Feb 9
New
Feb 17
First Quarter

Hourly Weather History & Observations

Time (PST) Temp. Windchill Dew Point Humidity Pressure Visibility Wind Dir Wind Speed Gust Speed Precip Events Conditions
12:15 AM 44.6 °F - 10.4 °F 25% 30.27 in 10.0 mi Calm Calm - N/A   Unknown
12:35 AM 41.0 °F - 12.2 °F 31% 30.27 in 10.0 mi Calm Calm - N/A   Unknown
12:55 AM 39.2 °F - 14.0 °F 36% 30.27 in 10.0 mi Calm Calm - N/A   Unknown
1:15 AM 41.0 °F - 10.4 °F 29% 30.28 in 10.0 mi Calm Calm - N/A   Unknown
1:35 AM 39.2 °F - 12.2 °F 33% 30.28 in 10.0 mi Calm Calm - N/A   Unknown
1:55 AM 41.0 °F - 10.4 °F 29% 30.28 in 10.0 mi Calm Calm - N/A   Unknown
2:15 AM 44.6 °F 41.4 °F 10.4 °F 25% 30.28 in 10.0 mi NW 5.8 mph - N/A   Unknown
2:35 AM 39.2 °F - 10.4 °F 31% 30.28 in 10.0 mi Calm Calm - N/A   Unknown
2:55 AM 46.4 °F 43.5 °F 8.6 °F 22% 30.27 in 10.0 mi NNW 5.8 mph - N/A   Unknown
3:15 AM 46.4 °F - 8.6 °F 22% 30.27 in 10.0 mi Calm Calm - N/A   Unknown
3:35 AM 44.6 °F 42.2 °F 8.6 °F 23% 30.26 in 10.0 mi West 4.6 mph - N/A   Unknown
3:55 AM 39.2 °F - 8.6 °F 28% 30.27 in 10.0 mi Calm Calm - N/A   Unknown
4:15 AM 37.4 °F - 10.4 °F 33% 30.27 in 10.0 mi Calm Calm - N/A   Unknown
4:35 AM 35.6 °F - 8.6 °F 33% 30.27 in 10.0 mi Calm Calm - N/A   Unknown
4:55 AM 39.2 °F 37.0 °F 8.6 °F 28% 30.27 in 10.0 mi NW 3.5 mph - N/A   Unknown
5:15 AM 39.2 °F 33.6 °F 10.4 °F 31% 30.26 in 10.0 mi NW 8.1 mph - N/A   Unknown
5:35 AM 41.0 °F 38.0 °F 10.4 °F 29% 30.27 in 10.0 mi WNW 4.6 mph - N/A   Unknown
5:55 AM 39.2 °F - 10.4 °F 31% 30.27 in 10.0 mi Calm Calm - N/A   Unknown
6:15 AM 39.2 °F - 10.4 °F 31% 30.27 in 10.0 mi Calm Calm - N/A   Unknown
6:35 AM 37.4 °F 34.9 °F 8.6 °F 30% 30.27 in 10.0 mi WNW 3.5 mph - N/A   Unknown
6:55 AM 35.6 °F - 8.6 °F 33% 30.27 in 10.0 mi Calm Calm - N/A   Unknown
7:15 AM 35.6 °F - 8.6 °F 33% 30.27 in 10.0 mi Calm Calm - N/A   Unknown
7:35 AM 37.4 °F - 10.4 °F 33% 30.28 in 10.0 mi Calm Calm - N/A   Unknown
7:55 AM 37.4 °F - 10.4 °F 33% 30.28 in 10.0 mi Calm Calm - N/A   Unknown
8:15 AM 39.2 °F - 14.0 °F 36% 30.29 in 10.0 mi Calm Calm - N/A   Unknown
8:35 AM 44.6 °F 41.4 °F 12.2 °F 27% 30.30 in 10.0 mi West 5.8 mph - N/A   Unknown
8:55 AM 48.2 °F - 10.4 °F 22% 30.30 in 10.0 mi WSW 6.9 mph - N/A   Unknown
9:15 AM 51.8 °F - 10.4 °F 19% 30.30 in 10.0 mi Calm Calm - N/A   Unknown
9:35 AM 50.0 °F - 12.2 °F 22% 30.30 in 10.0 mi SE 4.6 mph - N/A   Unknown
9:55 AM 50.0 °F - 12.2 °F 22% 30.30 in 10.0 mi Calm Calm - N/A   Unknown
10:15 AM 53.6 °F - 10.4 °F 18% 30.30 in 10.0 mi Calm Calm - N/A   Unknown
10:35 AM 53.6 °F - 10.4 °F 18% 30.29 in 10.0 mi Calm Calm - N/A   Unknown
10:55 AM 55.4 °F - 8.6 °F 15% 30.28 in 10.0 mi NW 6.9 mph - N/A   Unknown
11:15 AM 55.4 °F - 8.6 °F 15% 30.27 in 10.0 mi NW 8.1 mph - N/A   Unknown
11:35 AM 57.2 °F - 8.6 °F 14% 30.26 in 10.0 mi North 6.9 mph - N/A   Unknown
11:55 AM 57.2 °F - 14.0 °F 18% 30.25 in 10.0 mi NE 4.6 mph - N/A   Unknown
12:15 PM 59.0 °F - 10.4 °F 15% 30.24 in 10.0 mi NE 6.9 mph - N/A   Unknown
12:35 PM 59.0 °F - 12.2 °F 16% 30.23 in 10.0 mi NE 4.6 mph - N/A   Unknown
12:55 PM 59.0 °F - 10.4 °F 15% 30.22 in 10.0 mi NE 5.8 mph - N/A   Unknown
1:15 PM 59.0 °F - 10.4 °F 15% 30.21 in 10.0 mi NNW 5.8 mph - N/A   Unknown
1:35 PM 62.6 °F - 6.8 °F 11% 30.20 in 10.0 mi North 10.4 mph - N/A   Unknown
1:55 PM 62.6 °F - 5.0 °F 10% 30.19 in 10.0 mi North 9.2 mph - N/A   Unknown
2:15 PM 62.6 °F - 5.0 °F 10% 30.19 in 10.0 mi North 10.4 mph - N/A   Unknown
2:35 PM 62.6 °F - 5.0 °F 10% 30.18 in 10.0 mi North 6.9 mph - N/A   Unknown
2:55 PM 62.6 °F - 6.8 °F 11% 30.18 in 10.0 mi North 4.6 mph - N/A   Unknown
3:15 PM 62.6 °F - 6.8 °F 11% 30.18 in 10.0 mi NNE 5.8 mph - N/A   Unknown
3:35 PM 62.6 °F - 6.8 °F 11% 30.18 in 10.0 mi NNE 6.9 mph - N/A   Unknown
4:15 PM 62.6 °F - 6.8 °F 11% 30.18 in 10.0 mi WNW 5.8 mph - N/A   Unknown
4:35 PM 59.0 °F - 8.6 °F 14% 30.18 in 10.0 mi WNW 5.8 mph - N/A   Unknown
4:55 PM 55.4 °F - 8.6 °F 15% 30.18 in 10.0 mi NW 6.9 mph - N/A   Unknown
5:15 PM 53.6 °F - 8.6 °F 16% 30.18 in 10.0 mi Calm Calm - N/A   Unknown
5:35 PM 53.6 °F - 8.6 °F 16% 30.18 in 10.0 mi Calm Calm - N/A   Unknown
5:55 PM 55.4 °F - 8.6 °F 15% 30.18 in 10.0 mi Calm Calm - N/A   Unknown
6:15 PM 46.4 °F - 14.0 °F 27% 30.18 in 10.0 mi Calm Calm - N/A   Unknown
6:35 PM 48.2 °F - 10.4 °F 22% 30.18 in 10.0 mi Calm Calm - N/A   Unknown
6:55 PM 53.6 °F - 6.8 °F 15% 30.19 in 10.0 mi NW 3.5 mph - N/A   Unknown
7:15 PM 50.0 °F - 8.6 °F 19% 30.19 in 10.0 mi North 8.1 mph - N/A   Unknown
7:35 PM 50.0 °F - 8.6 °F 19% 30.19 in 10.0 mi North 8.1 mph - N/A   Unknown
7:55 PM 50.0 °F - 10.4 °F 20% 30.20 in 10.0 mi North 8.1 mph - N/A   Unknown
8:15 PM 51.8 °F - 8.6 °F 18% 30.20 in 10.0 mi North 8.1 mph - N/A   Unknown
8:35 PM 48.2 °F - 10.4 °F 22% 30.20 in 10.0 mi NNW 9.2 mph - N/A   Unknown
8:55 PM 48.2 °F - 10.4 °F 22% 30.21 in 10.0 mi NNW 8.1 mph - N/A   Unknown
9:15 PM 48.2 °F - 10.4 °F 22% 30.21 in 10.0 mi NW 6.9 mph - N/A   Unknown
9:35 PM 48.2 °F - 8.6 °F 20% 30.22 in 10.0 mi WNW 5.8 mph - N/A   Unknown
9:55 PM 48.2 °F - 8.6 °F 20% 30.22 in 10.0 mi NNE 3.5 mph - N/A   Unknown
10:15 PM 44.6 °F - 10.4 °F 25% 30.22 in 10.0 mi Calm Calm - N/A   Unknown
10:35 PM 46.4 °F - 8.6 °F 22% 30.22 in 10.0 mi Calm Calm - N/A   Unknown
10:55 PM 44.6 °F - 10.4 °F 25% 30.22 in 10.0 mi Calm Calm - N/A   Unknown
11:15 PM 42.8 °F - 10.4 °F 27% 30.22 in 10.0 mi Calm Calm - N/A   Unknown
11:35 PM 44.6 °F - 8.6 °F 23% 30.22 in 10.0 mi Calm Calm - N/A   Unknown
11:55 PM 41.0 °F 35.8 °F 8.6 °F 26% 30.22 in 10.0 mi North 8.1 mph - N/A   Unknown